Theta_e
298 298 298 300 301 301 300 301 302 302 301 300 300 300 301 301 302 302 303 304 305 306 307 307 308 309 309 309 309 310 310 311 312 313 315 316 318 319 320 321 321 320 320 320 321 321 322 323 323 324 323 323 322 322 321 320 320 320 320 320 320 320 319 318 317 316 315 314 314
298 298 299 301 302 302 301 301 301 301 301 300 300 300 300 300 301 301 302 303 304 305 306 307 307 308 308 308 308 308 309 310 311 312 313 315 316 317 318 318 317 317 318 320 321 322 322 323 323 323 322 321 321 320 319 319 319 319 319 319 319 319 319 319 318 317 316 315 314
298 298 299 299 299 299 299 300 300 299 298 298 299 299 299 299 300 301 301 301 301 302 303 304 305 305 306 306 306 307 308 309 310 312 312 313 313 313 314 315 317 318 319 320 321 322 323 323 323 322 321 320 320 319 317 316 318 319 319 318 316 316 316 316 315 314 313 313 311
298 298 298 298 298 298 298 300 300 299 299 299 298 298 298 298 299 299 299 299 299 300 301 301 302 303 303 304 305 305 307 308 309 310 311 312 312 313 313 315 316 317 318 319 321 322 323 323 322 321 320 319 319 318 316 316 316 316 313 310 310 311 312 310 309 308 308 307 305
298 299 299 299 298 298 298 298 298 298 298 298 298 298 299 299 299 299 299 299 300 300 300 300 301 303 303 304 305 306 307 309 311 311 310 311 311 311 312 313 315 316 318 319 320 321 321 321 319 319 319 319 318 316 316 315 315 312 308 306 306 306 306 305 304 304 303 302 301
299 298 298 298 297 297 297 297 297 297 297 297 297 298 299 301 301 301 301 302 303 303 303 304 305 306 307 306 307 308 308 308 309 310 310 310 310 310 311 312 313 315 316 317 318 319 319 318 316 314 313 313 311 311 311 313 311 309 306 304 303 303 302 301 301 301 301 300 299
297 297 297 297 297 297 296 296 295 295 296 296 296 297 299 301 300 301 302 303 305 306 307 307 307 307 307 307 307 308 308 309 309 309 309 309 309 310 310 311 312 313 314 315 315 315 315 314 312 310 309 308 307 307 308 310 309 306 304 302 301 301 301 300 300 300 300 299 298
296 296 296 296 296 295 295 295 295 296 297 298 298 298 299 300 300 301 302 301 303 304 305 307 306 305 306 306 307 307 308 309 309 309 309 309 310 310 311 311 311 312 312 313 313 312 311 311 309 308 307 306 305 306 306 307 306 304 302 301 300 300 300 300 300 300 299 297 297
295 295 295 294 294 294 294 295 295 296 297 297 299 299 300 300 300 301 302 301 303 303 304 305 305 304 305 306 307 307 308 308 308 308 309 309 310 310 310 310 310 310 310 310 310 310 309 308 307 306 305 305 304 304 305 305 304 302 301 300 299 299 299 299 299 298 297 296 295
295 294 294 294 295 295 295 295 295 296 297 298 299 300 301 302 301 301 302 304 304 305 305 305 304 304 305 306 306 307 307 307 307 308 308 308 308 308 308 308 308 308 308 308 308 308 307 306 305 305 304 304 303 303 303 303 302 301 300 299 298 297 297 297 297 296 296 295 294
294 295 295 295 295 296 296 296 297 297 299 300 300 301 302 303 303 303 303 303 304 304 305 305 305 305 305 306 306 306 307 307 306 306 306 306 306 306 305 306 306 306 306 306 306 306 306 305 303 303 302 302 302 302 302 302 300 299 299 298 297 296 296 296 295 295 295 294 293
295 295 295 295 295 295 296 296 297 298 299 300 301 302 302 303 303 304 304 303 304 305 305 305 305 306 306 306 306 306 306 305 305 305 305 304 304 304 304 304 304 304 305 305 305 305 305 304 302 302 301 301 301 301 300 300 299 298 297 297 296 295 295 294 294 294 294 293 292
295 295 295 295 295 295 296 296 297 297 298 300 300 302 302 303 303 304 304 303 304 304 305 305 305 305 305 305 305 305 305 304 304 304 303 303 302 302 302 302 302 303 303 303 304 304 303 302 302 301 300 300 300 300 299 299 298 297 296 295 295 294 294 293 293 293 293 292 292
295 295 295 295 295 296 296 296 297 297 298 299 300 301 302 303 303 303 303 303 303 303 303 303 303 303 304 304 304 303 303 303 302 302 301 301 301 300 300 300 300 300 301 301 301 302 301 301 300 300 299 298 298 298 298 297 297 296 295 294 294 293 293 293 292 292 292 291 291
295 295 295 295 295 296 296 296 297 298 299 300 301 301 302 302 302 302 302 302 302 302 302 302 302 302 302 302 302 301 301 301 300 300 299 299 299 298 298 298 298 298 298 298 299 299 299 299 298 298 297 296 296 296 296 296 295 295 294 294 293 292 292 292 291 291 290 290 290
296 297 297 296 296 296 296 297 298 299 300 300 300 301 301 301 301 301 301 300 300 300 300 300 300 301 301 301 300 300 299 299 299 298 298 297 297 297 297 296 296 297 297 297 297 297 297 297 297 297 296 296 295 295 295 295 294 294 293 293 292 292 291 291 290 290 290 290 290
299 299 299 298 298 297 298 298 299 299 299 299 299 299 300 300 300 300 300 300 300 299 299 299 299 299 299 299 299 299 298 298 297 297 296 296 296 295 295 295 295 296 296 296 296 295 296 296 296 296 296 295 295 294 294 294 293 293 292 292 291 291 291 291 290 290 290 290 290
300 300 299 298 298 298 298 299 299 299 298 298 298 299 299 299 299 299 299 299 299 298 298 298 298 298 298 298 298 298 297 297 296 296 295 295 295 295 295 295 295 295 295 295 295 295 295 295 295 295 295 294 294 293 293 292 292 292 291 291 291 290 290 290 290 290 290 290 290
300 299 298 298 298 299 299 298 298 298 298 298 298 298 298 298 298 298 298 298 298 298 298 298 298 298 297 297 297 297 297 296 295 295 295 295 295 294 294 294 294 294 294 294 294 294 294 294 294 294 293 293 292 292 292 291 291 291 291 291 290 290 290 290 290 290 290 290 289
299 299 298 299 298 298 298 298 298 298 298 298 297 297 297 297 297 297 297 297 298 298 298 297 297 297 296 296 296 296 296 296 295 295 295 295 294 294 294 294 294 294 294 294 294 293 293 293 293 293 292 292 291 291 291 291 291 291 291 291 290 290 290 290 290 290 289 289 288
297 298 298 298 298 298 298 297 297 297 297 297 297 297 297 297 297 297 297 297 297 297 297 296 296 296 296 295 295 295 295 296 295 295 294 294 294 294 294 293 293 293 293 293 293 293 293 293 292 292 292 291 291 291 291 290 290 290 290 290 290 290 289 289 289 288 288 287 286
298 298 298 298 298 297 297 297 297 297 297 297 296 296 296 296 296 296 296 296 296 296 296 296 296 295 295 295 295 295 295 295 294 294 294 294 293 293 293 293 293 293 293 293 292 292 292 292 292 292 291 291 291 290 290 290 289 289 289 289 289 289 288 288 288 287 286 285 283
298 297 297 297 297 297 297 297 296 296 296 296 296 296 296 295 296 296 296 296 296 296 295 295 295 295 295 295 294 294 294 294 294 293 293 293 293 293 293 293 292 292 292 292 292 292 292 291 291 291 291 290 290 290 290 289 289 289 288 288 288 288 288 287 287 287 286 285 284
297 297 297 298 297 297 297 296 296 296 296 295 295 295 295 295 295 295 295 295 295 295 295 295 295 295 295 295 295 294 294 293 293 293 293 293 293 293 292 292 292 292 291 292 292 292 292 291 291 291 290 290 290 289 289 289 288 288 288 287 287 287 287 287 287 287 287 286 286
298 297 298 297 297 297 297 296 296 296 295 295 295 295 295 295 295 294 294 294 294 294 294 294 294 294 295 294 294 294 294 293 293 293 293 293 293 293 293 293 292 292 292 293 294 293 293 292 291 290 290 290 289 289 289 288 288 288 287 287 287 287 287 287 287 287 287 287 288
297 297 297 297 297 297 296 296 296 296 295 295 295 295 295 294 294 294 294 293 294 294 294 294 294 294 294 294 294 294 294 294 294 293 293 293 294 294 294 294 293 294 294 294 295 294 294 293 292 291 290 289 289 288 288 288 288 288 287 287 287 287 286 286 286 286 286 286 286
297 297 297 297 296 296 296 296 295 295 295 295 294 294 294 294 294 293 293 293 293 293 293 293 294 294 294 294 294 294 293 294 294 294 294 294 294 294 294 295 295 295 295 296 295 295 294 294 293 292 290 289 288 288 287 287 287 287 287 286 286 286 286 286 286 286 286 286 285
296 296 296 296 296 295 295 295 295 295 294 294 294 294 294 293 293 293 293 293 292 292 293 293 293 293 294 293 293 293 293 294 294 294 295 295 295 295 295 295 295 296 296 296 296 295 294 294 293 292 290 289 287 287 287 287 286 286 286 286 286 286 286 286 286 286 285 285 283
296 296 295 295 295 295 294 294 294 294 294 294 294 293 293 293 293 293 292 292 292 292 292 292 293 293 293 293 293 294 294 294 295 295 295 295 295 295 295 295 295 296 296 296 296 295 294 293 293 292 290 289 287 287 287 286 286 286 286 286 286 285 285 285 285 285 284 283 280
296 295 295 294 294 294 293 293 293 293 293 293 293 293 293 293 292 292 292 292 292 292 292 292 293 293 293 293 293 294 294 294 294 294 294 294 294 295 295 295 295 295 296 296 296 295 294 293 292 292 291 290 288 287 286 286 286 286 286 285 285 285 284 284 284 283 282 280 278
295 295 294 294 293 293 293 293 293 293 293 293 293 292 292 292 292 292 292 292 292 292 293 293 293 293 293 293 293 294 294 294 294 294 294 294 294 295 295 295 295 295 296 296 295 295 294 293 292 291 290 289 288 286 286 286 285 285 285 285 284 284 283 283 282 281 280 278 278
294 294 293 293 292 292 292 293 293 293 292 292 292 292 292 291 291 292 292 292 292 293 293 293 293 293 293 293 293 293 293 293 293 293 293 293 293 294 294 294 294 295 295 295 295 294 294 293 292 291 290 289 288 285 284 284 284 284 283 282 280 278 277 277 277 277 277 278 278
294 293 293 292 292 292 292 292 292 292 292 292 292 292 291 291 292 292 292 292 292 293 293 293 292 292 292 292 292 292 292 293 293 293 293 293 293 293 293 293 294 294 295 295 294 294 293 293 292 291 290 289 286 282 280 280 280 280 279 278 277 276 276 277 277 278 278 278 277
293 293 292 292 292 292 292 292 292 292 292 291 291 291 291 291 292 292 292 293 293 293 293 292 292 292 292 292 292 292 292 292 292 292 292 292 292 292 292 293 293 294 295 295 294 294 293 293 292 291 290 288 284 280 278 278 278 277 277 277 277 277 277 277 277 277 276 276 276
293 292 292 292 292 292 292 292 291 291 291 291 291 291 291 292 292 292 292 293 293 292 292 292 292 292 292 291 291 291 291 291 291 291 291 291 292 292 292 292 293 294 295 294 294 293 293 292 291 290 288 286 281 279 278 278 277 277 277 277 276 276 276 276 275 274 273 274 273
293 292 292 292 292 292 291 291 291 291 291 291 291 291 292 292 292 292 293 293 292 292 291 291 291 291 291 290 290 290 290 290 290 290 290 291 290 290 291 291 292 293 294 294 294 293 292 291 290 288 286 283 279 278 278 278 277 277 276 276 275 274 274 273 273 273 272 272 272
292 292 292 292 291 291 291 291 291 291 291 291 291 291 292 292 292 292 292 292 291 291 290 290 290 290 289 289 289 289 290 289 289 289 290 290 289 289 289 290 290 292 293 293 293 292 291 290 289 287 284 280 278 277 277 277 277 276 276 275 274 273 272 271 271 271 272 272 274
292 292 292 292 291 291 291 291 291 291 291 291 291 292 292 291 291 292 292 291 291 290 290 289 289 289 289 289 289 289 289 289 289 289 289 289 289 288 288 288 288 290 292 293 292 292 291 290 288 286 283 279 278 277 277 277 276 275 274 274 273 272 271 270 269 270 271 273 280
292 292 292 292 292 292 292 291 291 291 291 291 291 291 291 291 291 291 291 291 290 290 289 289 288 288 289 289 289 288 289 289 289 289 289 288 288 288 288 287 287 289 291 292 292 291 291 290 288 287 284 280 277 276 276 276 275 273 272 272 272 272 271 269 269 269 270 273 282
293 292 292 292 292 292 292 292 292 292 292 291 291 291 291 291 291 291 291 290 290 289 289 288 288 288 289 289 288 288 288 288 288 288 288 287 288 288 288 286 286 287 289 291 291 291 291 290 288 286 283 278 275 275 275 275 274 272 271 270 270 271 271 270 269 269 269 270 275
293 292 292 292 292 292 292 291 291 291 291 291 291 291 291 291 290 290 290 289 289 289 288 288 288 288 288 288 287 286 286 285 285 285 284 284 282 283 283 281 281 281 283 288 290 291 290 289 288 286 283 278 274 273 273 274 273 272 271 269 268 269 270 270 270 270 270 269 270
Wind_Speed
2 2 1 2 2 2 2 2 2 2 2 2 2 2 2 2 2 3 3 2 3 3 3 3 3 3 4 4 4 5 5 6 6 6 6 6 6 6 6 6 6 6 6 6 6 6 6 6 5 5 4 4 5 5 5 4 3 3 4 5 5 5 5 6 6 6 7 7 5
2 2 2 2 2 2 2 2 2 2 2 2 2 2 2 2 3 3 3 3 3 3 3 3 3 3 4 5 5 5 5 6 6 6 6 6 6 6 5 5 5 5 5 6 6 6 5 6 5 5 4 4 4 5 4 3 3 4 5 6 5 4 4 5 6 6 7 7 5
2 2 2 2 2 2 2 2 2 2 2 2 2 2 2 2 2 3 3 3 2 2 2 3 3 4 4 5 5 5 5 5 6 6 6 6 5 4 3 3 4 4 5 6 6 6 6 6 5 5 4 4 5 4 4 4 4 4 5 5 4 3 3 4 4 4 4 3 3
2 2 2 2 2 3 3 2 3 3 3 2 2 2 2 2 2 2 2 2 2 2 2 3 3 3 4 5 5 5 5 5 5 5 5 4 2 2 2 3 4 5 5 6 6 6 6 6 5 4 4 5 6 5 4 4 5 4 3 2 2 2 2 2 2 2 3 3 4
2 2 2 2 3 3 3 3 3 3 3 2 2 1 1 1 1 1 2 2 2 2 3 3 3 3 4 4 5 5 5 4 3 2 1 1 1 2 2 3 4 5 5 6 6 6 6 6 4 3 4 5 4 4 4 5 5 4 3 2 2 3 3 3 3 3 3 4 4
3 3 3 2 3 3 3 3 3 3 2 1 1 1 2 1 1 2 2 2 2 3 3 3 3 4 4 4 4 4 2 1 1 1 2 2 2 2 3 3 4 4 4 5 5 5 5 5 3 2 2 2 2 3 4 6 6 5 4 4 3 3 4 4 3 4 5 6 6
3 3 3 3 2 2 2 2 2 1 1 1 1 1 2 2 2 2 2 2 2 3 3 3 3 3 3 3 2 1 1 2 2 3 3 2 2 3 3 3 4 4 4 4 5 5 5 4 3 3 3 3 2 3 4 6 6 6 6 5 4 4 4 5 4 5 6 9 9
2 2 2 2 2 2 2 2 1 1 1 1 2 2 2 2 2 2 2 2 2 2 2 2 3 3 3 2 2 2 2 3 3 3 3 3 3 3 3 4 4 4 4 4 5 5 5 4 3 3 3 3 3 3 5 7 8 8 7 6 5 4 4 4 4 5 7 9 9
2 2 2 2 2 2 2 2 2 2 3 3 3 2 2 2 2 2 2 2 2 2 2 2 3 3 3 3 3 4 3 3 4 4 3 3 4 4 4 4 5 5 5 4 5 6 6 5 4 3 3 3 3 4 6 9 10 9 8 7 6 5 5 5 6 6 7 9 9
3 3 3 3 3 3 2 3 3 3 4 4 4 3 3 3 3 3 2 2 2 2 3 3 3 3 4 5 5 4 4 4 4 5 5 5 5 5 5 4 5 5 5 5 5 6 6 5 5 4 4 4 5 6 7 9 10 10 8 6 7 7 7 7 7 8 8 9 9
3 3 3 3 3 3 3 3 4 4 4 4 4 4 4 4 4 3 2 2 3 3 4 4 4 4 5 5 5 5 5 5 5 5 6 6 6 6 6 5 5 6 5 5 5 5 5 5 6 7 7 6 7 7 8 9 9 9 8 7 8 9 9 8 7 7 8 9 10
2 2 2 3 3 3 3 4 3 4 4 4 4 4 4 4 4 3 3 3 4 4 5 4 5 5 5 5 5 5 5 5 6 6 6 7 7 7 7 6 6 6 6 6 5 5 5 6 7 8 9 8 7 7 7 9 9 9 9 8 8 9 9 8 8 7 7 8 9
2 3 3 3 3 3 3 3 3 3 4 4 4 4 4 4 4 4 4 4 5 5 4 5 6 6 5 5 5 5 5 6 6 6 6 7 7 7 7 7 7 7 7 6 5 5 6 7 8 9 9 8 7 7 8 8 9 9 8 8 8 8 8 8 7 7 7 8 9
3 3 3 3 3 3 3 3 3 3 4 4 4 4 4 4 4 4 4 5 5 5 5 5 5 5 5 6 6 6 6 6 7 7 7 7 7 7 7 7 7 7 7 6 7 7 7 7 8 8 9 9 9 8 8 8 9 9 9 8 8 8 8 7 7 7 8 8 9
3 3 3 3 3 3 3 3 3 3 4 4 4 4 4 4 5 5 5 5 5 5 5 5 5 6 6 7 7 7 7 7 8 8 8 8 8 8 8 8 8 8 8 8 8 8 8 8 8 8 9 10 10 9 9 8 9 9 9 9 8 8 7 7 7 7 7 8 8
3 3 3 3 4 4 4 3 3 3 4 4 4 4 4 4 4 5 5 5 5 5 5 6 5 5 6 7 7 8 8 8 8 8 8 8 8 8 8 8 8 8 9 9 9 9 8 8 8 9 9 10 10 9 9 9 9 10 10 9 8 8 7 7 7 7 7 7 8
4 4 4 4 4 4 4 4 3 4 4 5 5 4 4 4 4 5 5 5 5 5 6 6 5 5 6 6 7 7 7 8 8 8 8 8 8 9 9 9 9 9 9 9 9 9 9 9 8 9 10 10 10 10 10 10 10 10 10 10 9 8 8 8 8 7 7 7 7
4 4 4 4 5 5 5 5 4 4 5 5 5 4 4 4 4 5 5 5 5 6 6 7 6 6 6 7 7 7 7 8 8 8 8 8 9 9 9 9 9 9 9 10 10 10 9 9 9 9 9 10 9 9 10 10 10 11 11 10 9 8 8 8 7 7 6 7 7
4 4 4 4 5 5 5 5 5 5 5 5 4 5 5 5 5 5 5 6 6 6 7 7 6 7 7 8 8 7 7 8 9 9 9 9 9 9 9 9 9 9 9 10 10 10 9 9 9 9 9 9 9 10 10 10 10 11 10 10 9 8 8 7 6 6 6 6 6
4 4 4 5 5 5 5 5 5 5 5 4 5 5 5 6 6 6 6 6 6 6 7 7 7 7 7 8 8 8 8 7 8 9 9 9 9 9 9 9 9 9 9 9 9 9 9 9 9 9 9 10 10 10 10 10 11 10 10 8 8 7 7 6 6 6 6 6 6
3 4 5 5 5 5 5 5 5 5 5 5 5 5 6 6 6 6 6 6 6 6 7 7 7 7 8 8 9 8 7 7 8 8 9 9 9 9 9 9 9 9 9 9 9 9 9 9 9 9 9 10 10 10 10 10 10 10 9 8 7 7 7 7 6 6 6 6 6
3 5 6 6 6 5 5 5 5 6 6 5 5 5 6 6 6 6 6 6 6 7 7 7 7 7 8 8 8 8 8 7 8 8 8 8 9 8 8 8 9 9 8 8 8 8 8 8 9 9 9 9 10 10 10 10 10 10 9 8 8 8 7 7 7 6 6 6 5
4 5 5 5 6 6 6 5 6 6 6 5 5 5 6 6 6 6 6 6 6 7 7 7 7 7 7 7 8 8 8 8 8 8 8 8 8 8 8 8 8 8 8 7 7 7 7 8 8 8 8 9 9 10 10 10 10 9 9 9 8 8 8 7 7 6 5 5 4
4 4 5 5 6 6 6 6 6 6 6 6 5 6 6 6 6 6 7 7 7 7 7 6 6 7 7 7 8 8 9 9 9 9 9 8 8 8 8 7 7 7 7 6 6 6 7 6 7 7 7 8 8 8 9 9 9 9 9 9 8 8 7 7 6 6 5 4 3
4 5 5 6 6 6 6 6 6 6 6 6 6 6 6 6 6 7 7 7 7 7 7 7 6 6 6 7 7 8 8 9 9 9 8 8 7 7 7 6 6 6 5 6 9 10 10 8 7 6 6 7 7 8 8 8 8 8 8 8 8 8 8 7 6 5 4 4 3
5 5 6 6 6 6 6 6 6 6 5 5 5 6 6 6 6 7 7 7 7 7 7 6 6 6 6 6 7 7 7 7 7 8 8 7 7 7 6 6 5 5 5 8 11 12 12 12 10 8 7 6 7 7 7 7 7 7 7 8 8 8 8 7 6 6 5 4 4
5 5 6 6 6 6 6 5 5 5 5 5 5 6 6 5 6 6 7 7 7 7 6 6 6 6 6 6 7 7 7 6 6 7 7 7 7 6 6 5 4 5 6 10 13 13 13 13 13 11 9 6 6 7 7 7 7 7 7 7 7 7 7 7 6 6 5 5 4
5 5 6 6 6 6 6 5 6 6 6 6 6 6 6 6 6 6 6 6 6 6 6 5 5 5 4 5 6 6 6 5 5 5 6 6 6 5 5 5 5 6 9 13 14 14 14 14 14 13 11 8 7 6 7 7 7 6 6 6 6 6 6 6 5 5 5 4 4
5 6 6 6 6 6 6 6 6 6 6 6 6 6 6 6 6 6 6 6 6 6 5 4 4 4 4 4 5 5 6 6 5 5 6 6 6 6 6 6 6 9 12 15 15 15 14 14 14 14 13 10 7 5 5 6 5 5 5 5 4 4 4 4 4 4 4 4 3
5 6 6 6 6 6 6 6 6 6 6 6 6 6 6 6 6 6 6 7 6 6 5 4 4 4 4 5 5 5 6 6 6 6 6 6 6 6 6 7 7 9 12 15 15 15 14 14 14 14 13 12 9 6 5 5 5 5 4 4 3 4 4 4 4 4 4 3 3
5 6 6 6 6 6 6 6 6 6 5 5 6 6 6 7 7 6 6 6 6 5 5 5 5 6 6 6 6 6 7 6 6 6 6 6 7 7 7 7 8 9 12 15 15 14 14 14 14 14 13 12 9 6 5 5 4 4 3 3 3 3 3 4 4 4 4 3 4
5 6 6 7 7 6 6 6 6 6 5 6 6 6 7 7 6 6 5 5 5 5 5 6 7 7 7 7 7 7 7 6 6 6 6 6 7 7 7 7 8 9 12 14 14 14 14 14 14 13 13 12 9 7 5 4 4 4 4 4 3 3 3 3 4 4 4 4 4
6 6 6 7 7 6 6 6 6 6 6 6 6 6 7 6 6 5 5 4 4 5 6 6 7 7 7 7 7 7 6 6 7 7 7 7 7 7 7 7 7 9 12 14 14 14 14 14 14 14 13 12 8 6 5 4 4 4 4 4 4 4 4 4 4 4 4 4 4
6 6 6 6 6 6 6 6 6 6 6 6 6 6 6 6 6 5 5 4 4 4 5 6 6 6 6 6 6 6 6 6 6 7 7 7 7 6 6 5 5 8 12 14 14 14 14 14 14 14 13 12 8 6 5 5 4 4 4 4 4 4 5 5 5 5 4 4 3
6 6 6 6 6 6 6 6 6 6 6 6 6 6 5 5 5 5 5 5 5 5 5 5 5 5 5 5 6 6 6 6 6 7 7 7 7 7 6 6 6 9 12 13 13 14 14 14 14 14 13 10 7 5 5 6 5 5 5 5 5 5 5 5 5 4 3 3 3
6 6 7 6 6 6 6 6 6 6 6 6 6 5 5 4 4 5 5 6 6 6 6 6 5 5 6 6 6 6 6 7 7 7 7 7 7 7 6 6 6 9 11 13 13 13 14 14 14 14 12 8 5 5 5 5 5 5 6 6 6 5 5 5 4 4 3 2 2
6 6 7 7 6 6 6 6 6 6 6 6 6 5 5 5 5 5 5 6 6 6 6 6 6 6 6 6 6 6 6 6 7 7 7 7 6 6 6 5 6 7 10 12 12 13 13 14 14 13 11 7 5 5 5 4 4 5 5 6 5 5 5 4 4 4 3 2 1
5 6 6 6 6 6 6 6 6 6 6 6 6 5 5 5 4 5 5 5 6 6 6 6 6 6 6 6 6 6 6 6 6 7 7 6 6 5 5 4 4 6 8 11 12 12 13 14 14 12 10 6 5 5 4 4 4 4 5 5 4 4 4 3 3 4 4 3 3
5 5 5 6 6 6 6 6 6 6 6 6 6 6 5 5 4 4 5 5 6 6 6 6 6 6 6 7 7 6 6 6 6 6 6 6 5 5 5 4 4 5 7 10 11 12 12 13 13 12 10 7 5 5 4 4 4 4 4 4 4 4 4 3 3 3 4 4 6
5 5 5 5 5 6 6 6 6 5 5 6 6 6 6 5 4 5 5 5 5 6 6 6 6 6 6 7 7 6 6 6 5 5 5 5 5 5 5 3 3 4 6 9 11 12 12 13 13 12 10 6 5 4 4 5 5 4 4 4 3 3 3 3 3 3 3 4 6
4 4 4 5 5 5 5 6 5 5 5 6 6 6 5 5 5 5 5 5 5 5 5 6 6 6 6 7 6 6 6 5 5 5 5 5 5 5 4 3 2 2 3 7 10 11 12 13 13 12 10 6 5 4 4 4 5 4 4 3 2 2 2 3 3 3 3 3 4
Wind_Direction
323 309 295 281 272 267 264 262 259 254 249 244 245 244 240 239 250 255 255 248 251 257 263 266 268 275 282 287 286 286 285 285 281 273 264 254 249 243 237 232 223 212 200 187 178 178 181 183 181 182 184 187 189 188 187 181 194 202 203 198 201 197 190 187 187 186 184 184 182
306 291 280 276 274 272 271 272 266 260 251 242 241 242 242 242 250 257 258 251 251 259 269 277 278 280 282 283 283 283 284 285 284 281 275 266 259 252 243 231 217 200 185 175 173 174 178 179 178 179 180 183 184 183 180 170 182 192 198 198 197 190 185 187 189 187 185 183 175
285 277 269 267 268 268 268 271 268 263 256 249 243 243 243 246 251 257 264 266 270 275 280 282 282 282 281 282 283 281 277 276 277 277 275 270 267 258 240 210 189 177 171 169 172 174 176 176 176 175 176 178 179 175 166 152 163 179 191 194 187 179 177 181 178 173 168 154 131
279 269 261 258 254 253 254 259 266 267 265 261 256 252 248 249 256 266 278 292 298 295 286 283 286 285 284 284 285 283 279 274 271 269 268 265 260 237 195 171 165 166 167 168 172 174 174 174 174 175 175 176 176 172 163 154 157 161 165 159 139 135 138 130 114 107 102 94 88
293 275 259 252 251 249 248 249 259 266 272 281 285 283 278 272 280 296 308 314 306 299 292 289 289 290 289 287 285 284 283 280 274 264 247 212 145 137 141 150 157 162 166 169 172 172 170 168 167 168 171 174 174 169 160 149 143 133 113 77 67 68 71 69 65 70 77 82 79
298 290 279 263 258 254 252 249 253 262 274 298 317 324 326 328 332 335 331 319 309 307 306 304 299 297 295 291 285 283 284 321 49 74 87 95 98 107 119 134 146 153 158 162 162 158 155 151 144 139 138 139 134 132 132 132 126 115 98 78 68 68 73 78 81 85 88 89 87
288 290 290 286 280 275 272 270 271 278 295 332 1 1 356 353 344 340 334 325 325 325 326 324 317 310 305 301 304 319 21 65 67 68 73 86 92 99 105 115 123 129 134 138 136 133 129 124 119 113 105 97 94 97 106 115 115 109 103 95 87 84 86 90 92 95 96 97 96
288 292 296 301 305 307 312 320 336 353 17 40 32 20 5 359 350 347 347 346 344 339 337 339 332 325 323 336 0 17 34 53 60 63 68 82 89 94 97 100 102 104 108 113 116 114 110 105 104 104 103 99 94 93 97 104 105 104 101 99 94 90 88 90 91 94 97 98 97
321 322 326 332 345 354 4 10 22 36 46 48 38 28 19 17 10 9 11 15 4 357 353 359 352 353 6 29 33 33 36 49 58 58 57 64 73 78 82 85 87 87 88 91 99 102 102 98 95 94 95 96 95 96 99 103 103 102 100 98 95 91 88 87 89 91 93 94 93
345 349 354 6 13 21 29 36 43 49 52 51 43 37 37 41 34 27 24 28 23 23 24 22 15 22 33 41 40 40 40 46 54 55 53 52 58 62 66 71 77 80 81 82 90 95 97 97 94 90 88 89 94 98 102 105 107 107 106 104 103 98 94 90 92 93 94 94 93
356 3 11 21 24 32 41 47 49 52 54 55 49 46 45 44 39 32 26 29 39 39 37 31 32 36 41 43 43 46 49 52 58 60 60 57 57 58 60 63 69 73 77 79 85 92 96 99 99 97 95 94 96 99 102 104 106 108 109 110 109 105 101 97 97 97 98 100 98
10 16 24 28 32 40 47 51 51 52 53 54 51 49 46 42 32 25 25 35 45 45 40 33 38 43 45 45 46 50 56 60 64 66 66 64 63 62 61 61 63 66 70 72 79 88 97 103 106 106 105 103 101 100 101 102 103 104 105 107 105 104 102 101 101 102 103 104 101
32 34 34 33 37 44 51 53 52 50 50 49 45 43 41 40 30 27 29 39 43 43 39 37 41 43 45 45 48 52 57 62 65 67 68 66 66 65 64 62 63 63 65 66 72 83 94 101 105 107 106 102 99 98 99 100 101 101 100 98 96 96 98 100 101 102 102 100 98
48 47 43 40 44 48 52 52 51 49 48 46 41 38 37 37 32 31 33 38 39 40 40 42 43 43 45 47 51 55 59 63 66 67 67 66 66 66 66 65 64 65 66 66 68 75 83 91 95 98 98 97 94 93 94 97 98 97 96 92 90 90 92 95 97 97 97 96 95
61 55 51 50 51 53 54 52 51 48 45 46 40 37 36 36 33 33 35 38 39 41 44 46 47 47 47 50 54 57 60 63 65 67 67 65 65 66 67 67 67 68 70 71 70 72 76 81 86 90 92 93 92 92 91 92 92 92 90 88 88 88 89 90 90 91 93 96 96
74 68 63 60 59 57 55 53 52 49 45 45 41 39 39 39 36 36 38 40 42 45 48 50 51 50 51 52 56 59 61 62 64 65 66 65 66 67 68 68 69 70 73 75 75 74 75 77 82 86 89 91 91 91 89 88 87 86 85 84 84 85 87 87 86 87 90 95 99
86 79 73 67 63 60 58 56 56 54 51 49 45 44 44 45 43 43 44 45 49 54 55 55 54 55 56 56 57 60 62 63 64 64 65 66 68 68 69 69 70 72 74 76 77 77 77 77 80 83 85 87 87 87 87 85 84 83 81 81 82 83 85 86 87 89 93 97 102
93 86 78 72 69 66 64 63 63 62 60 57 54 53 53 55 55 54 52 52 57 62 64 62 60 60 62 63 61 62 65 66 67 68 68 69 69 70 70 70 71 72 73 75 77 77 78 78 79 81 82 84 84 84 84 84 84 83 82 82 83 85 87 89 92 96 100 102 103
102 94 84 77 76 74 72 71 70 69 67 66 65 65 65 65 65 63 61 58 61 66 70 71 68 66 66 68 67 67 68 70 72 73 72 71 71 70 70 70 70 71 73 75 76 77 77 77 79 81 84 86 86 86 86 86 85 85 86 87 89 91 93 95 96 96 95 94 93
106 98 91 84 82 80 78 78 77 75 73 72 72 73 73 72 71 69 67 65 65 68 71 74 73 72 71 72 71 70 69 71 73 74 74 73 71 71 71 71 71 72 73 75 77 78 78 79 81 84 87 90 90 90 89 88 88 88 88 90 91 92 92 90 85 80 76 74 77
102 99 96 92 89 87 85 84 84 82 78 75 76 77 79 78 74 72 71 70 70 70 71 72 74 75 75 76 75 74 72 71 73 74 75 74 73 72 72 73 73 73 74 75 78 80 82 83 85 87 89 91 92 92 92 91 91 91 91 91 89 85 80 75 71 68 66 66 71
101 99 98 96 94 92 90 89 88 86 83 78 77 78 79 79 77 74 73 72 72 72 72 72 72 74 76 78 80 79 77 74 72 73 75 76 76 75 75 75 75 76 76 77 80 82 84 86 87 89 91 92 93 94 95 95 95 95 94 91 86 80 74 70 69 69 70 72 77
106 103 101 99 98 97 96 93 91 89 86 83 81 80 79 79 78 76 73 71 72 72 73 74 73 74 76 80 83 84 84 81 78 77 77 78 79 79 79 78 77 77 77 77 80 83 86 88 89 89 91 94 96 97 99 100 100 99 97 93 88 83 78 75 76 78 80 83 89
114 110 107 103 102 100 99 97 95 93 91 89 88 86 84 83 81 78 75 73 72 72 72 75 75 76 78 81 84 87 89 89 87 85 84 84 85 86 85 84 82 82 82 83 86 89 91 91 91 92 94 97 99 100 101 102 102 101 99 97 94 91 87 84 84 86 92 99 107
114 110 107 105 104 103 101 99 97 95 94 93 92 91 89 88 86 83 80 77 75 73 74 76 78 79 80 82 85 87 89 92 93 94 93 93 94 94 94 94 94 94 95 97 98 98 98 98 98 98 99 100 101 101 100 100 101 102 101 101 101 99 96 91 87 85 87 93 101
112 109 107 106 105 102 99 96 95 94 93 93 91 90 89 89 88 87 85 83 80 78 77 77 79 82 84 85 86 87 88 90 94 96 99 99 98 97 97 98 101 103 105 107 106 105 104 105 104 103 101 99 100 100 99 98 98 99 100 101 103 103 102 98 94 88 82 76 68
111 109 107 106 102 99 96 93 92 90 90 89 88 87 87 88 88 88 87 86 84 81 78 76 78 82 85 86 87 87 87 88 91 93 95 96 96 96 96 99 101 105 109 110 109 108 107 107 106 104 101 96 96 98 99 99 99 98 99 100 102 104 105 106 105 101 92 80 67
113 111 108 104 100 97 94 91 90 88 88 88 87 87 86 86 87 87 87 87 85 83 80 77 79 82 85 85 85 85 84 83 84 86 87 89 92 93 95 97 100 105 109 110 108 108 107 107 107 106 103 99 95 97 100 102 103 102 103 104 107 109 112 114 114 111 104 92 78
114 112 108 103 99 96 93 91 91 90 90 90 89 88 87 86 85 85 86 87 85 84 84 84 84 84 83 83 81 79 77 76 78 81 84 86 87 89 92 95 100 105 108 109 108 108 108 109 109 109 108 105 101 100 103 106 108 110 111 113 117 119 120 119 116 112 107 100 87
114 111 107 103 99 96 93 93 94 95 94 93 92 91 89 86 84 84 84 85 86 87 90 92 88 83 80 78 78 77 76 76 78 82 85 88 89 90 92 96 101 105 108 109 108 108 109 110 111 112 112 111 109 108 109 113 115 117 119 123 125 124 122 117 112 108 104 99 86
112 109 105 101 98 96 95 95 96 96 96 94 94 92 90 87 85 84 85 88 90 92 92 89 84 80 77 75 77 77 78 78 78 80 83 85 87 88 91 94 98 103 106 107 107 108 110 112 113 115 116 117 117 116 114 116 115 116 117 120 118 115 112 108 105 102 98 92 85
108 106 105 103 101 101 100 100 98 97 95 93 94 93 92 91 90 89 91 93 95 94 91 87 84 82 80 78 78 78 79 79 80 81 81 81 82 84 87 91 96 101 105 107 107 109 111 114 117 119 121 121 119 114 107 104 102 100 100 99 99 98 97 96 93 89 86 84 83
108 107 107 106 106 106 105 103 100 97 94 93 93 94 96 97 97 97 96 96 94 93 91 90 89 88 87 86 84 83 83 84 84 85 83 81 79 81 84 90 96 104 108 109 110 112 115 118 121 122 122 121 113 104 95 94 94 94 93 89 85 83 81 81 79 76 74 74 78
112 111 110 111 111 110 108 105 101 99 97 96 96 98 101 103 105 104 102 98 93 91 90 90 90 90 90 89 89 89 89 90 89 88 87 84 80 79 81 85 97 107 111 113 115 117 119 122 123 122 120 116 108 100 98 99 99 97 93 86 76 69 65 64 63 62 62 67 74
118 118 117 116 116 114 112 110 108 106 104 104 104 105 106 107 108 107 105 102 96 92 88 88 88 88 87 85 86 88 89 90 89 89 89 88 86 84 83 86 96 107 112 114 117 119 121 122 122 120 117 112 106 103 104 104 101 97 90 83 71 61 54 52 49 48 49 57 70
124 124 123 123 122 121 119 119 118 116 115 115 114 113 111 108 107 107 106 105 100 96 92 90 89 88 87 85 85 85 87 88 88 87 86 87 87 87 87 88 95 105 111 114 117 119 120 121 121 119 116 111 108 106 107 105 101 93 85 77 67 57 48 43 40 36 36 43 63
127 128 129 129 128 128 128 129 128 126 125 125 122 119 115 110 108 109 109 108 103 100 97 94 93 92 91 90 88 86 86 88 89 90 88 86 86 87 88 87 91 102 109 113 117 119 122 123 123 121 120 115 113 111 107 102 97 88 81 74 65 54 43 36 33 29 25 23 52
129 132 133 133 134 135 136 136 136 135 133 130 126 121 116 113 112 112 112 111 107 105 103 99 98 97 96 95 93 89 86 85 88 90 91 89 87 88 88 87 88 99 109 115 119 123 125 126 126 125 124 121 120 116 110 101 91 83 77 70 61 48 35 27 25 23 18 9 25
131 133 134 135 136 138 139 140 139 138 135 131 125 120 116 113 112 112 112 111 110 109 107 105 104 103 102 100 96 91 86 83 85 89 92 91 91 91 91 89 90 102 112 118 122 126 127 128 127 126 124 118 118 116 111 103 91 81 72 64 57 43 29 19 19 18 13 4 11
130 131 132 134 137 139 139 139 138 136 132 128 124 120 117 113 110 109 108 108 109 108 109 108 108 106 105 103 99 95 89 81 77 78 81 81 81 82 84 81 83 97 110 119 123 126 127 127 126 123 120 113 112 111 108 102 92 81 70 58 54 44 28 9 9 10 6 359 360
130 130 131 133 136 137 136 134 131 128 125 122 121 120 117 113 109 106 106 107 108 109 109 109 108 107 106 105 103 99 94 84 70 62 59 60 58 59 62 65 63 70 97 117 122 124 124 125 124 122 119 114 109 105 102 99 94 88 79 63 56 50 36 10 3 2 0 354 349